Wind_Gust
6 9 9 9 7 9 12 13 14 11 9 14 15 11 14 13 12 12 13 12 10 10 12 13 13 13 12 12 12 11 11 11 9 11 10 9 9 9 9 8 8 6 7 6 5 7 8 7 7 6 7 8 8 7 7 9 9 9 9 8 9 7 10 8 9 3 3 2 6 7 6 10 9 7 9 8 7 7 6 6 6 7 7 8 7
8 9 8 9 10 12 13 13 12 7 11 14 11 11 10 6 5 8 8 9 12 15 15 15 11 12 12 11 10 10 11 11 9 10 11 10 9 8 10 10 8 7 7 8 7 8 7 8 7 6 7 9 8 8 8 9 9 9 8 10 11 10 6 13 8 9 9 3 4 4 7 8 10 7 13 12 10 7 9 7 6 6 8 7 7
16 13 10 9 9 12 13 12 10 9 12 12 10 12 12 12 12 12 11 10 11 15 15 16 11 12 12 11 10 10 11 11 10 11 11 11 11 9 10 11 12 10 10 10 9 7 7 8 8 7 6 6 6 6 6 8 8 10 10 8 9 9 9 8 10 10 9 9 5 7 9 9 12 11 10 8 6 8 8 9 10 8 7 6 8
21 21 17 13 12 9 11 13 12 11 12 12 13 13 14 12 11 10 10 10 11 16 15 15 11 11 12 10 11 10 10 11 11 11 12 12 12 12 10 11 12 11 11 10 9 9 9 8 8 7 7 8 7 8 9 8 12 7 5 5 7 9 8 9 10 13 12 12 9 13 11 12 11 3 7 6 8 8 9 5 3 7 7 8 9
18 20 18 15 11 11 9 12 12 11 12 15 15 16 16 16 14 14 11 9 9 13 15 14 11 11 13 12 10 9 10 11 12 9 8 9 11 11 10 9 9 9 10 10 9 10 10 11 10 9 8 9 6 7 8 8 10 13 12 10 11 11 7 11 12 8 11 14 10 5 5 7 6 5 10 12 6 7 4 7 8 9 8 8 9
19 17 15 14 12 10 9 9 8 11 16 18 17 16 16 15 13 12 13 14 10 14 15 17 13 11 11 10 10 9 9 10 11 10 9 7 8 9 9 9 8 8 8 8 9 10 11 11 9 10 11 12 11 9 9 9 9 11 12 14 13 10 8 8 8 9 12 13 13 9 4 12 8 8 9 11 10 9 6 6 4 6 9 9 12
20 21 20 17 12 11 11 9 5 10 14 15 13 15 16 16 16 17 15 16 15 14 15 15 10 10 8 8 8 8 7 7 8 7 7 7 8 7 8 8 7 7 7 9 8 8 9 9 9 10 12 12 11 11 11 8 10 10 12 13 12 8 7 8 9 10 10 9 5 5 8 6 7 10 4 7 5 6 9 5 10 11 10 12 15
21 20 20 20 19 17 11 6 6 9 12 13 14 15 14 15 16 16 15 19 17 14 15 12 8 9 9 9 7 6 7 7 6 6 7 8 7 6 7 8 7 7 6 7 8 8 8 8 9 10 11 10 11 10 11 12 9 9 9 9 10 11 9 8 7 8 7 7 10 10 8 10 6 3 5 7 6 6 10 15 17 14 15 15 17
20 20 18 17 20 21 18 9 5 8 11 13 13 15 13 12 12 14 19 19 15 14 13 11 14 12 10 9 8 6 8 7 5 6 8 6 6 8 8 9 10 8 6 5 4 4 6 6 5 3 3 7 7 5 3 5 10 9 8 9 12 13 13 7 8 9 8 8 5 4 7 6 8 9 9 9 15 25 14 11 14 12 7 7 14
18 18 19 20 22 22 21 16 6 5 9 14 14 13 12 17 20 17 11 11 16 16 14 13 14 14 13 9 8 8 7 5 5 5 3 7 9 7 7 8 8 8 8 8 8 9 7 8 9 13 13 12 10 10 9 9 7 7 12 14 12 15 15 11 10 11 11 11 12 12 10 11 13 14 14 15 12 2 5 10 15 13 2 9 11
19 17 19 17 19 21 22 21 9 9 10 15 14 17 16 16 15 16 15 14 18 17 17 15 14 14 15 13 11 8 5 5 5 4 3 6 9 9 10 7 6 8 9 10 10 10 9 9 7 9 9 8 10 13 13 13 15 12 11 5 4 14 18 14 15 14 15 13 9 8 11 12 12 8 8 4 4 7 5 6 10 4 9 9 18
20 20 19 19 19 20 20 20 14 10 12 12 17 15 17 18 19 15 14 14 17 16 17 15 14 14 14 12 12 8 5 6 5 3 3 5 7 11 10 11 9 8 8 11 10 11 10 9 7 7 6 6 5 10 14 17 19 20 19 20 20 19 10 8 11 11 10 11 11 11 9 7 5 6 6 4 6 6 9 8 9 10 10 11 12
22 22 22 22 20 21 18 19 19 11 15 15 14 17 20 18 18 16 13 13 16 18 16 15 13 11 16 16 12 8 5 7 6 4 6 8 9 11 10 10 12 10 11 11 11 10 9 10 9 8 8 10 9 9 11 14 16 19 17 17 19 19 19 20 15 7 7 10 11 6 4 5 6 3 5 5 4 5 4 8 9 9 10 10 16
21 22 23 23 23 22 22 20 19 17 13 14 13 18 19 19 16 16 18 12 15 18 14 16 12 10 12 16 15 10 7 9 7 6 11 13 15 14 13 14 13 13 12 12 11 10 9 10 9 8 7 6 6 8 11 10 9 12 13 14 15 16 18 19 17 17 13 12 12 9 1 3 6 3 2 2 5 5 6 5 4 6 7 13 12
21 22 23 23 23 23 23 22 21 19 19 12 15 17 17 19 18 14 16 14 18 18 18 16 13 12 10 13 16 13 10 10 7 13 15 17 19 15 16 15 15 15 14 13 12 11 10 11 10 8 7 8 8 3 11 10 12 13 14 15 15 13 15 15 14 12 12 12 12 9 5 4 6 4 1 1 1 1 3 3 4 4 5 5 7
21 22 23 24 24 22 25 25 23 22 23 23 17 19 18 19 20 15 14 15 15 17 14 14 15 12 9 11 17 15 13 14 10 12 17 18 20 18 17 17 16 15 15 13 12 10 9 11 11 10 9 10 10 8 8 11 13 14 15 13 14 14 14 7 8 8 9 9 9 8 6 7 4 6 6 4 3 2 4 3 6 4 4 5 6
23 22 22 23 24 22 21 26 25 23 22 22 22 16 20 21 19 18 16 13 20 17 16 14 12 13 13 12 17 16 15 14 13 11 15 20 18 19 18 18 16 16 14 11 12 11 10 9 10 10 10 10 9 7 5 9 13 13 13 13 11 14 13 10 8 9 9 11 12 11 11 12 12 13 13 11 9 3 6 10 9 5 6 5 6
20 21 22 23 23 23 21 23 25 23 25 22 19 20 18 20 21 15 17 17 21 16 15 19 16 16 16 15 14 19 15 15 15 12 9 13 17 21 18 20 16 15 14 12 12 13 14 17 12 9 10 8 8 9 7 9 13 10 11 12 12 13 9 7 6 8 7 10 11 12 13 12 12 13 13 12 12 8 12 11 6 3 2 2 8
20 20 21 21 21 21 20 20 24 25 25 24 18 15 20 22 22 21 18 17 20 16 17 21 19 18 17 16 17 20 16 15 17 16 15 11 15 17 19 19 19 13 13 14 10 11 11 12 14 11 9 8 11 11 11 10 11 9 10 14 13 12 3 2 6 8 6 8 9 7 12 10 10 10 10 12 12 9 10 6 4 7 4 4 6
16 17 18 19 20 22 21 19 21 24 24 25 23 17 18 20 20 22 19 15 19 18 17 19 22 18 15 15 18 17 18 17 17 20 17 17 13 14 12 19 18 14 11 12 13 11 10 10 10 10 10 12 13 14 13 12 13 8 9 13 13 10 2 6 5 6 8 10 8 7 9 6 8 9 9 11 12 10 9 8 6 4 3 3 4
15 15 16 18 19 20 20 19 20 21 21 23 24 20 19 20 19 21 21 19 19 21 20 19 21 19 17 16 18 18 17 17 19 21 20 20 18 13 15 15 13 14 13 12 11 12 11 10 8 9 10 12 14 15 15 14 11 13 11 11 6 5 3 8 8 6 11 10 10 11 11 10 10 9 10 10 10 9 9 7 7 4 3 3 6
14 14 16 16 17 19 20 20 19 17 18 22 25 21 20 19 19 19 19 19 21 21 17 17 20 19 17 17 17 18 18 19 18 20 22 21 20 18 17 14 11 12 15 12 11 11 10 9 9 9 12 14 16 17 18 17 16 16 13 8 7 7 8 7 6 10 12 12 13 14 13 12 12 12 11 11 10 9 8 7 6 5 3 4 6
13 14 14 15 15 16 17 19 19 18 19 17 21 19 18 18 18 19 19 19 20 19 17 15 18 18 17 16 16 16 16 17 18 19 19 21 21 20 18 15 12 12 15 14 10 9 8 9 10 13 15 16 17 17 17 18 15 14 10 11 9 8 7 10 10 13 13 12 13 13 11 10 11 11 11 11 11 10 10 10 8 5 2 2 3
13 13 14 13 13 14 16 17 18 18 19 18 17 17 16 17 17 18 17 17 17 17 15 13 13 16 16 15 15 14 14 14 15 17 17 19 19 19 18 17 14 14 14 12 9 9 10 11 12 15 19 21 21 21 21 18 18 16 15 14 13 11 12 12 13 12 11 12 12 10 9 7 7 9 9 7 7 8 7 5 8 5 6 7 3
13 14 13 13 14 12 13 15 16 17 17 17 18 16 16 15 17 15 15 15 14 15 13 13 13 12 13 15 14 13 12 12 12 14 15 17 17 17 17 17 14 13 16 11 11 13 12 14 16 16 17 18 19 19 17 18 19 18 18 17 14 14 13 12 10 11 14 10 8 7 8 7 3 2 4 4 4 5 6 11 9 7 6 5 7
13 13 13 12 13 13 14 13 14 15 16 16 15 14 14 14 14 12 12 12 13 13 12 11 11 11 14 13 13 11 10 10 11 11 9 10 12 15 16 15 16 17 18 20 18 18 16 17 19 18 16 15 19 17 16 17 17 19 18 16 14 14 12 12 12 13 10 8 8 8 5 8 7 7 4 3 7 10 8 10 10 13 12 13 15
12 12 12 12 11 12 12 14 13 15 16 16 17 17 15 14 14 13 11 10 9 9 9 9 11 13 13 12 11 12 12 13 13 14 13 12 12 11 13 15 14 16 19 18 16 18 19 17 17 16 17 20 19 15 14 13 18 17 15 14 12 11 10 11 10 10 8 8 7 8 6 8 6 10 12 10 8 8 8 7 10 11 10 11 8
11 11 11 10 9 10 11 10 13 14 14 14 14 14 14 12 14 13 12 10 9 9 9 8 8 9 11 10 12 13 13 13 14 14 14 13 12 12 12 13 13 13 17 15 15 13 14 10 14 14 16 18 18 17 16 15 14 12 12 11 11 10 9 7 7 10 8 5 4 4 6 9 10 10 9 9 9 9 9 10 8 11 10 9 11
11 12 11 10 11 9 10 10 11 11 10 13 14 13 11 11 10 10 9 6 5 6 7 8 7 5 9 7 12 12 9 10 8 5 9 7 8 9 11 10 11 12 10 11 15 12 14 16 15 17 17 16 15 15 14 14 14 12 12 12 11 12 13 14 14 11 9 10 12 9 9 9 10 10 10 11 12 10 10 12 9 10 12 7 9
10 11 11 10 9 7 6 8 8 9 9 9 11 13 10 12 10 10 9 9 12 10 6 6 4 4 9 7 6 12 11 7 2 5 6 7 9 9 8 8 8 11 11 11 14 18 15 15 13 13 12 13 13 12 11 10 10 12 12 8 11 12 12 11 11 9 8 9 7 9 9 8 10 10 9 10 12 12 11 9 11 9 10 9 9
9 10 10 10 9 7 6 6 6 6 6 7 7 8 9 12 11 12 10 10 11 12 13 12 13 10 9 11 10 12 10 7 4 3 7 8 9 10 11 12 12 10 10 18 18 16 14 16 13 12 12 12 12 10 8 8 7 8 8 8 9 10 9 10 9 7 9 9 9 8 8 9 9 9 11 10 10 11 12 9 6 8 9 8 10
9 8 8 8 8 7 5 4 4 4 4 6 7 6 6 9 11 11 11 11 11 12 13 13 12 10 9 7 5 6 5 3 4 6 9 11 13 14 14 14 14 14 12 20 19 14 12 14 13 11 10 11 9 7 7 7 6 6 5 9 10 9 9 10 7 8 9 11 11 11 11 11 11 10 9 9 7 8 10 13 13 12 12 9 9
9 9 7 8 9 7 7 7 5 4 2 3 6 4 6 6 10 9 10 8 11 12 13 12 11 11 11 10 8 5 5 5 6 10 13 14 17 17 17 16 13 14 19 20 17 13 11 12 12 9 9 10 7 7 7 7 7 7 7 9 10 9 9 7 5 10 10 10 10 11 10 10 9 8 7 9 11 10 11 11 10 8 8 10 11
5 6 7 7 8 9 9 8 7 7 6 2 4 4 4 7 7 6 8 7 10 10 10 11 10 9 10 11 10 9 10 11 12 14 14 16 17 18 17 17 16 15 16 16 14 13 11 11 9 8 7 7 6 7 7 7 7 8 9 10 9 8 8 7 11 11 10 11 10 6 6 7 8 10 10 9 9 7 10 9 9 10 10 9 9
6 7 9 8 8 8 7 6 4 4 6 6 3 6 5 5 6 7 7 8 8 8 6 9 10 11 10 9 12 15 15 15 14 13 12 13 15 15 15 18 16 13 14 12 12 12 11 11 10 8 7 7 6 6 7 6 8 9 9 8 8 9 9 10 9 8 8 6 8 9 8 8 8 6 5 8 9 10 9 10 10 9 9 10 9
7 8 8 11 11 8 7 7 5 6 6 6 5 7 7 5 6 7 5 7 7 7 6 8 7 7 14 13 14 15 16 15 14 12 10 8 6 12 16 12 13 11 10 7 9 8 9 9 9 7 6 5 5 6 7 8 7 8 7 8 8 8 8 7 6 6 5 8 7 7 8 8 5 5 4 8 8 8 8 7 7 7 6 8 7
9 9 10 9 8 7 6 5 5 6 5 5 5 9 8 6 5 5 4 5 6 5 6 5 8 11 10 10 11 14 15 16 16 15 14 13 13 14 12 11 12 11 9 9 9 8 9 7 7 6 6 7 5 6 7 8 7 7 7 7 6 6 5 4 6 7 8 9 5 5 5 4 7 6 7 9 8 8 6 5 5 6 6 8 7
7 8 6 6 7 7 6 5 4 5 8 6 6 6 7 7 7 6 5 5 4 4 6 7 7 9 10 6 6 8 13 11 14 13 11 11 13 11 10 9 9 11 9 7 7 9 8 6 7 7 5 6 7 6 8 8 8 8 7 5 4 3 5 5 5 5 5 8 8 7 7 8 6 5 6 6 4 4 5 6 6 9 9 9 7
8 8 8 8 5 7 6 5 6 7 7 7 5 5 5 7 7 6 5 5 5 3 2 5 8 9 8 7 5 4 9 11 10 9 8 8 8 7 8 8 8 8 7 7 7 8 8 8 6 7 7 7 7 6 7 6 6 7 6 6 4 4 6 6 7 6 7 8 6 4 4 4 3 2 1 3 6 6 6 7 7 7 8 9 9
9 6 6 7 6 6 7 4 2 4 4 5 3 3 4 7 9 9 7 5 5 4 3 5 5 5 6 6 5 8 12 8 7 7 7 6 7 5 7 7 7 8 7 6 7 8 9 7 7 8 7 6 6 6 6 6 5 5 4 6 6 6 4 6 5 7 5 3 4 3 3 3 3 2 4 6 5 5 7 8 6 6 5 5 8
5 3 4 4 3 4 3 5 4 3 2 2 2 3 4 3 3 3 5 5 5 4 5 5 4 2 3 7 6 8 13 10 7 6 5 6 6 6 7 6 6 5 5 6 7 8 8 8 7 7 6 5 4 6 7 5 5 5 5 5 5 5 5 5 5 5 4 4 3 3 3 3 4 7 9 8 7 8 6 5 6 7 8 6 6
5 3 5 4 2 1 2 4 4 4 4 3 3 3 3 3 4 5 5 5 4 5 4 6 6 5 6 11 11 12 13 8 6 6 4 3 5 6 6 6 5 5 6 5 6 8 8 7 5 4 5 3 4 5 6 5 5 5 4 5 5 5 7 4 3 3 4 4 4 5 4 5 6 8 6 6 7 8 9 9 9 8 9 8 8
3 2 1 3 2 2 3 2 3 5 6 6 4 3 4 3 5 4 6 4 5 6 7 7 5 5 6 6 11 9 9 7 5 6 4 4 4 5 6 5 3 4 4 3 3 7 8 8 5 4 4 3 3 4 6 8 8 6 5 6 5 6 3 2 3 4 3 5 6 6 5 6 8 8 8 7 7 7 8 8 8 9 8 8 8
3 1 2 3 4 3 4 5 3 2 3 5 6 2 4 4 4 5 7 7 6 6 6 6 6 6 6 5 6 9 8 6 6 5 4 4 3 5 6 4 3 4 6 5 4 5 8 8 8 6 5 5 5 5 6 4 3 7 8 7 5 4 2 3 3 2 3 4 5 6 7 6 6 7 8 8 6 9 9 9 9 9 8 8 9
3 4 3 4 4 2 2 4 4 2 2 3 2 2 3 6 5 5 7 8 7 6 7 6 6 6 5 5 6 8 7 7 6 6 5 5 4 5 6 5 4 5 5 6 3 5 6 8 8 7 8 5 5 6 6 6 5 4 3 5 8 6 5 5 4 4 2 2 3 4 5 6 7 9 10 7 5 5 8 6 6 6 9 9 10
5 3 4 3 5 4 1 2 2 3 3 2 2 1 2 2 4 6 7 7 7 7 6 6 5 5 5 4 5 8 7 7 7 6 5 4 5 5 4 4 4 4 4 4 4 6 5 6 8 8 7 5 5 5 5 5 5 5 5 5 5 5 4 4 4 3 2 1 2 2 3 3 4 5 6 7 5 4 5 5 4 4 5 7 8
6 4 3 1 2 2 1 4 4 4 3 3 3 3 3 4 4 5 5 6 7 8 7 7 6 6 6 5 3 5 6 7 6 5 5 5 5 5 4 4 4 4 3 3 5 7 7 8 6 7 6 4 4 5 4 4 4 4 3 4 3 3 3 3 4 4 3 2 1 1 1 1 3 4 6 5 6 7 6 7 5 6 7 5 6
6 4 4 5 5 3 4 5 7 4 4 3 4 3 4 4 5 6 6 5 7 6 6 5 7 9 8 8 6 4 4 4 3 4 3 5 5 5 5 5 6 6 4 5 5 5 5 6 5 6 7 4 5 4 3 3 3 4 3 3 2 2 4 3 4 5 4 3 2 2 2 1 2 1 2 2 3 3 6 8 9 8 7 7 6
5 6 6 8 8 6 5 3 4 7 8 6 4 3 3 3 4 5 5 7 5 5 7 8 4 5 6 6 7 8 6 4 7 5 4 4 4 5 5 4 4 3 6 7 4 5 6 6 5 6 7 4 4 4 3 4 5 5 5 5 6 8 7 6 3 4 6 3 1 1 2 2 1 1 2 2 2 2 3 3 4 6 8 7 6
3 2 5 6 8 8 5 4 5 6 7 8 8 7 5 5 4 6 4 5 5 5 6 7 9 9 8 8 6 7 7 7 7 6 5 4 4 2 1 2 2 2 2 4 3 4 5 4 4 5 5 5 4 4 3 4 4 5 4 5 6 7 7 7 6 6 6 2 2 2 2 2 1 1 1 1 2 2 3 3 4 6 5 7 7
4 7 4 4 8 8 6 6 5 6 8 9 9 9 8 9 8 7 6 7 9 9 8 7 6 4 4 7 9 9 8 8 7 5 5 5 3 2 1 1 1 2 2 3 4 4 6 5 4 4 4 4 2 2 2 2 2 4 5 7 8 8 8 7 7 8 8 6 2 1 2 3 3 3 4 3 3 3 5 4 5 6 6 4 5
Wind_Speed
3 5 4 4 4 6 7 8 9 6 3 6 5 6 6 5 5 5 5 6 4 3 5 6 6 7 7 6 7 6 6 6 6 6 6 6 5 6 6 5 5 4 4 4 3 4 5 5 4 4 4 5 5 4 5 5 4 5 5 5 5 4 6 4 5 1 0 0 3 3 3 6 3 4 5 4 4 3 4 3 4 4 4 5 5
5 6 5 5 7 8 9 8 8 4 5 6 6 1 2 3 1 3 5 4 5 4 5 7 6 6 6 6 6 6 6 6 5 6 6 6 5 5 6 6 5 5 5 5 4 5 5 5 4 4 4 5 5 5 5 5 5 5 5 6 6 5 4 5 3 5 4 0 2 2 3 3 4 3 7 7 5 4 5 4 3 4 4 4 5
10 8 6 5 6 7 8 7 6 5 7 7 5 5 4 7 7 7 7 6 6 6 5 8 7 6 6 6 6 6 6 6 6 6 6 7 7 5 5 6 6 6 6 6 6 5 4 5 5 4 4 4 4 4 3 4 4 6 6 5 6 5 4 4 5 5 4 4 3 4 4 4 5 5 5 4 3 5 4 5 5 3 3 4 5
11 12 10 8 6 5 5 7 8 6 6 5 6 8 8 7 7 6 6 6 6 5 4 6 7 6 7 6 6 6 6 6 6 6 7 7 6 7 6 6 6 7 7 6 6 5 6 5 5 5 5 5 4 5 5 5 6 5 4 3 4 5 5 4 4 6 6 6 4 6 5 5 4 1 4 3 5 5 5 3 2 4 4 4 5
10 10 11 10 7 6 4 3 5 7 8 9 9 10 10 9 8 8 7 6 6 6 5 5 7 7 7 7 6 6 6 6 7 5 4 5 6 6 6 6 6 6 6 6 6 6 6 6 6 5 5 5 4 4 5 5 5 6 6 5 4 5 4 5 6 4 5 7 4 1 3 2 2 2 6 6 3 3 2 4 4 5 4 4 4
10 10 9 8 7 6 4 3 4 6 9 10 8 9 9 9 8 7 8 9 6 7 7 7 7 7 7 6 6 6 6 6 7 6 5 4 4 5 6 6 5 5 5 5 5 6 6 6 5 6 6 7 7 5 5 6 5 6 7 6 6 5 4 4 4 5 6 6 6 3 2 6 3 2 4 6 6 4 3 3 2 3 4 5 7
12 10 11 11 8 6 6 3 3 6 7 7 6 7 8 9 9 9 9 10 9 8 7 8 6 6 5 5 5 5 5 5 5 5 4 4 5 5 5 5 4 4 4 5 5 5 5 5 5 6 7 7 7 7 6 5 6 7 8 8 7 5 5 5 5 6 6 4 2 3 4 2 3 4 1 4 3 3 5 3 5 6 5 7 8
11 10 10 10 11 11 6 4 4 5 5 5 7 7 6 7 8 9 9 10 10 9 8 6 3 4 5 5 4 3 4 4 4 4 4 5 5 4 5 5 4 4 4 4 4 5 5 4 5 6 6 6 6 6 7 7 6 6 6 5 6 7 6 5 5 5 4 4 5 5 3 4 2 1 3 4 3 2 5 7 9 7 8 6 7
10 10 10 9 9 9 11 6 3 4 5 6 6 5 5 5 7 7 5 8 7 8 8 4 6 6 5 5 5 3 4 4 3 4 5 4 4 5 4 5 5 5 4 3 2 2 4 4 3 2 2 5 6 3 0 3 5 5 4 4 5 6 3 3 5 5 4 4 3 2 3 3 4 5 5 4 8 11 4 5 6 6 2 3 6
10 10 10 10 11 10 10 10 4 3 5 8 8 8 7 5 4 8 7 3 4 8 9 7 8 7 6 5 4 4 3 2 1 3 3 4 5 4 4 5 5 5 5 5 5 5 4 5 5 10 9 7 6 6 7 7 6 5 7 7 5 5 7 6 5 5 6 6 7 6 5 6 7 8 7 8 2 1 3 5 8 3 0 5 6
11 10 10 9 10 11 10 11 6 5 6 6 7 8 10 9 9 8 8 8 6 9 10 9 7 8 9 8 6 4 2 1 1 4 3 6 6 6 6 4 4 5 5 6 6 6 5 5 4 5 5 6 6 10 11 11 12 9 6 4 3 8 9 7 7 8 7 7 5 5 6 7 7 4 4 1 2 4 2 4 4 1 4 3 7
12 12 11 11 8 10 10 11 9 5 7 7 8 9 9 11 11 9 7 8 5 8 10 9 9 8 7 7 7 5 3 3 3 3 3 5 6 7 6 6 4 4 5 6 6 6 6 5 4 3 3 4 3 6 11 14 16 16 16 14 14 12 6 4 6 5 5 6 6 7 5 4 3 4 3 2 3 3 5 4 5 5 5 5 4
13 13 13 13 11 11 10 10 11 5 8 8 8 9 12 11 11 9 6 7 7 10 9 9 8 6 8 9 7 5 3 4 3 3 5 7 8 9 6 6 7 6 6 7 6 6 5 5 4 4 4 7 4 5 7 9 12 16 15 14 15 15 15 14 9 3 4 6 6 3 2 3 4 2 3 2 2 2 2 3 3 4 4 5 8
12 13 14 14 13 12 11 11 11 11 5 8 6 10 10 10 8 7 10 7 7 10 9 10 7 5 5 8 8 6 4 5 3 6 10 11 13 12 7 8 8 8 7 7 6 6 5 6 5 4 4 3 3 5 7 6 6 7 8 8 8 10 13 13 13 13 9 7 7 5 0 1 3 2 1 1 3 3 3 3 2 3 4 7 6
13 13 14 14 14 13 13 13 13 10 11 6 6 6 8 8 9 7 7 8 7 10 11 10 7 6 5 5 7 7 4 6 5 11 13 14 15 13 9 9 9 8 8 7 7 6 6 6 6 5 4 4 4 3 7 6 6 7 8 8 8 8 9 9 8 7 7 7 7 6 3 2 3 2 1 1 0 0 1 1 1 2 2 2 4
13 13 14 14 14 13 12 14 13 13 11 13 10 4 9 10 10 6 6 7 5 6 8 8 8 7 6 5 7 8 7 10 9 11 14 15 16 10 9 10 9 9 8 7 7 6 5 6 6 6 5 6 7 7 6 6 7 8 9 7 8 8 8 5 7 7 6 6 6 5 3 3 3 4 3 2 2 1 1 2 3 2 1 1 2
14 13 13 14 14 13 12 13 15 14 13 12 13 9 8 11 9 8 9 6 7 6 9 8 6 8 8 7 8 8 8 9 11 9 11 16 14 9 10 10 9 9 8 6 7 6 5 5 6 6 6 6 6 7 4 6 8 8 8 8 7 8 7 6 7 8 9 10 11 11 10 11 11 12 12 10 7 2 4 6 6 4 4 2 3
12 13 13 14 14 14 13 10 14 14 13 13 11 10 6 9 10 8 9 6 4 8 7 10 9 9 10 9 7 9 8 10 12 10 8 9 13 11 9 10 9 9 8 7 7 7 8 13 8 6 6 5 7 8 5 5 7 6 7 7 7 8 6 4 3 5 7 9 10 11 11 11 11 11 11 11 11 7 7 6 2 1 1 1 2
12 12 12 12 13 13 12 11 12 15 14 14 11 8 9 8 10 10 9 8 6 8 8 10 10 10 10 10 12 12 9 10 13 12 12 9 9 9 10 10 10 7 7 8 6 6 6 8 10 7 5 5 9 9 8 7 7 5 6 8 8 7 2 2 3 5 4 5 5 4 7 7 6 6 6 10 11 8 6 4 2 4 2 1 1
10 10 11 11 12 12 12 12 10 13 14 14 13 10 7 8 10 12 10 7 8 10 10 10 12 10 9 9 9 9 10 9 11 15 14 14 11 8 6 10 10 8 6 6 7 6 6 6 7 9 9 10 11 12 11 9 8 5 5 7 8 6 1 3 2 4 5 6 5 4 5 3 4 5 5 6 7 6 5 5 4 3 2 1 1
9 9 9 11 12 12 12 12 11 10 11 13 13 11 8 8 9 11 11 9 10 11 11 10 11 10 10 9 10 10 9 10 12 16 16 16 15 11 8 8 7 8 7 7 6 6 5 5 4 7 9 10 12 13 13 12 9 7 6 6 3 3 3 4 4 5 6 5 5 5 5 4 5 5 6 6 6 5 5 5 4 3 1 1 2
8 8 10 10 11 11 12 12 11 10 9 11 15 12 9 8 10 10 10 10 12 12 11 9 9 9 9 9 10 10 12 14 10 15 17 17 16 14 10 8 7 7 8 7 6 6 5 5 5 7 11 12 13 14 15 14 12 9 7 6 5 6 5 4 4 5 6 6 6 6 6 6 6 6 6 6 5 5 5 4 4 3 2 1 1
8 8 9 9 9 10 10 12 11 10 10 9 12 12 8 8 9 11 11 11 12 12 10 8 8 9 9 9 8 9 9 10 14 12 16 16 16 16 15 11 11 8 8 8 6 5 4 6 6 11 13 14 14 14 14 15 12 9 9 9 8 7 6 6 6 7 7 7 7 7 6 6 6 6 5 5 5 4 4 4 4 3 1 1 2
8 8 8 8 8 8 9 10 11 11 11 10 10 10 9 7 8 9 9 9 9 10 8 7 7 8 8 8 7 7 7 7 11 14 12 15 15 15 15 14 12 9 8 6 5 5 6 7 8 13 16 17 17 17 16 14 11 13 13 12 11 9 7 7 7 7 6 7 7 5 5 4 4 5 5 4 5 5 4 3 4 4 4 4 2
8 8 8 8 8 7 7 8 9 10 10 10 10 9 9 8 9 9 8 8 8 8 7 7 7 7 7 6 6 6 6 7 7 10 13 13 14 14 14 14 12 11 10 6 7 7 9 12 12 12 13 14 15 14 14 15 16 15 14 13 11 7 7 6 6 6 7 6 5 4 5 4 1 1 3 3 2 3 3 5 4 4 4 4 4
8 8 8 7 8 8 8 8 9 9 9 9 9 8 7 7 7 6 7 7 7 7 6 6 6 6 6 5 5 5 6 6 6 6 6 8 10 12 13 13 13 14 14 13 16 16 14 13 13 12 11 11 10 9 9 9 14 15 15 12 8 7 6 7 6 7 6 4 5 5 3 5 4 4 2 2 4 6 5 5 6 7 7 6 8
7 7 7 7 7 7 8 8 7 9 10 9 9 9 8 7 8 7 6 5 5 5 5 5 5 5 5 5 5 5 5 4 4 3 3 4 4 4 6 8 11 14 12 10 11 11 12 10 10 12 11 14 13 11 10 10 10 10 8 7 7 6 6 6 6 6 4 4 3 4 3 4 3 6 7 6 5 5 4 4 6 6 6 6 4
6 6 7 6 5 6 6 8 9 7 8 8 8 7 7 7 7 7 6 5 5 5 5 4 4 5 5 4 5 5 5 4 4 4 5 5 6 6 7 7 7 7 10 8 8 8 8 7 8 6 6 8 8 8 8 8 8 7 7 6 6 6 5 5 5 5 4 3 2 2 4 5 5 5 5 5 6 5 6 5 4 6 6 5 5
7 7 6 6 6 5 5 6 6 6 6 7 8 7 6 6 5 5 5 3 3 3 4 5 4 2 4 3 5 5 5 5 4 5 6 7 5 5 6 6 6 7 7 10 9 7 7 7 7 8 8 8 8 8 7 7 7 7 7 6 6 6 6 7 7 6 5 6 6 5 5 5 5 5 5 6 6 6 6 7 5 6 6 4 5
6 6 6 6 5 4 4 4 4 5 5 5 6 7 8 10 7 5 5 7 10 9 6 3 2 2 2 3 1 5 5 2 1 5 5 6 8 8 7 7 7 8 9 9 9 9 7 8 6 7 6 7 7 7 6 6 6 6 7 6 6 6 6 6 6 5 5 5 4 5 5 4 6 6 5 5 6 6 6 6 6 5 5 5 5
5 5 6 6 5 4 4 4 3 3 4 4 4 5 5 7 10 10 8 7 8 10 11 10 9 8 4 4 6 10 7 5 3 3 6 7 8 9 10 10 10 9 9 10 9 7 7 8 6 6 6 6 7 6 5 5 4 4 5 5 5 6 6 6 5 4 5 5 5 5 5 5 5 5 6 5 6 6 7 5 3 4 5 4 6
5 4 5 5 5 4 2 2 2 3 3 3 4 4 4 5 6 9 10 9 9 10 10 10 9 8 7 4 2 3 4 3 3 5 8 10 11 12 12 12 11 11 9 15 9 6 6 7 7 6 6 7 5 4 4 4 4 4 3 5 6 5 5 5 4 5 5 6 6 6 5 6 5 5 5 5 5 4 5 6 7 6 6 5 5
5 5 4 5 5 5 5 4 4 2 1 2 3 3 4 4 6 5 6 7 9 10 10 9 9 7 6 6 5 3 4 4 6 8 10 12 14 14 14 12 10 10 15 11 8 7 6 6 6 5 5 5 4 4 4 4 5 4 4 4 5 4 4 3 3 6 5 5 5 6 6 6 5 5 5 5 6 6 6 6 6 5 5 6 6
3 4 5 4 5 5 5 4 4 4 3 1 3 3 3 4 4 4 5 4 6 7 9 10 8 6 8 9 7 7 8 9 10 10 12 13 14 14 13 10 13 12 11 8 8 7 6 6 5 5 4 4 4 4 4 4 4 4 4 5 4 4 4 4 6 6 5 6 6 4 4 4 4 5 6 6 5 5 6 6 5 6 6 5 5
4 6 8 6 5 4 3 3 2 3 4 4 2 4 3 2 4 5 4 5 4 4 4 5 8 9 6 7 10 12 12 10 10 9 10 11 13 13 12 10 8 7 8 6 6 6 6 6 5 4 4 4 4 4 5 4 5 4 5 5 5 5 5 6 5 5 5 4 4 3 4 4 4 4 4 5 5 5 5 5 5 5 5 5 5
4 5 5 6 6 5 4 4 3 3 4 4 3 4 4 3 4 5 3 3 4 4 4 5 3 6 11 10 11 12 13 12 11 10 8 7 5 10 9 7 7 6 6 4 5 5 5 4 5 4 3 3 3 4 4 5 5 5 4 5 5 5 5 5 4 3 3 4 4 4 5 5 3 3 2 4 4 4 5 4 4 4 3 3 2
5 6 5 5 4 4 3 2 3 4 4 4 3 3 4 4 3 3 3 3 3 3 4 3 4 6 7 6 8 11 12 12 12 12 11 10 10 8 7 6 7 6 5 5 5 5 5 3 4 4 3 4 3 4 5 5 4 4 4 5 4 5 3 2 2 4 5 5 4 3 3 2 3 4 5 5 5 5 4 3 3 3 3 4 4
4 4 4 4 4 4 3 3 2 3 5 4 3 2 2 2 3 3 3 3 2 3 3 4 4 5 6 3 4 4 7 9 11 11 9 9 8 6 5 5 5 6 5 4 5 5 4 4 4 4 2 3 4 4 5 5 5 5 5 3 3 3 3 3 3 3 3 3 3 3 3 4 4 3 4 4 3 3 3 2 2 4 3 4 3
4 5 7 7 5 4 4 4 4 4 4 3 3 2 3 3 3 2 3 3 2 2 2 3 4 5 5 4 3 2 6 6 5 5 5 5 5 4 5 5 5 5 4 4 4 5 4 4 4 4 3 3 3 3 4 4 4 5 4 4 3 3 4 3 3 2 3 3 3 4 3 3 3 1 1 1 2 1 2 2 2 2 4 5 5
4 4 5 6 4 3 3 2 1 2 2 2 3 2 1 1 3 3 2 3 3 2 2 3 3 3 4 3 3 5 6 5 4 4 4 4 4 3 4 5 4 4 4 4 4 5 5 4 4 5 4 4 4 4 3 3 3 3 2 4 4 3 2 2 2 3 3 2 3 3 3 3 2 1 0 1 1 1 2 4 3 3 3 3 4
1 1 3 3 2 2 2 2 3 2 2 2 2 2 2 2 2 2 4 3 3 3 3 3 3 1 0 3 4 5 7 5 4 4 4 4 3 3 4 4 3 3 3 4 4 4 4 4 4 5 4 3 3 4 4 3 3 3 3 3 3 3 2 3 4 4 3 3 3 2 2 1 1 3 4 3 2 3 3 3 4 5 5 4 3
1 1 3 2 1 0 1 2 2 2 2 2 2 2 2 2 2 4 3 3 3 3 3 3 4 3 3 6 7 8 7 5 4 4 3 2 3 2 2 2 2 3 3 3 4 5 5 4 3 3 4 2 3 4 4 4 4 4 3 3 4 4 5 3 2 3 3 2 2 2 2 1 1 2 2 3 5 5 6 6 5 5 5 5 5
1 0 1 2 1 1 1 1 2 3 4 4 3 3 2 2 3 3 3 2 3 3 4 4 3 3 4 3 6 7 5 4 3 3 3 3 3 2 3 2 2 2 2 2 2 4 5 5 3 2 2 2 2 2 4 5 5 4 4 4 4 4 3 1 1 1 1 1 2 2 2 2 4 3 4 4 4 4 6 5 5 5 5 5 5
0 0 2 2 2 1 2 3 2 1 1 2 2 1 1 2 3 3 3 4 4 3 2 2 3 3 3 3 4 5 5 4 3 3 3 3 2 3 3 2 2 3 3 2 3 4 5 5 5 3 2 2 2 2 3 2 2 4 5 4 3 2 1 1 1 0 0 1 2 3 4 3 4 5 5 5 4 6 5 5 5 5 5 5 5
1 1 2 2 2 1 0 1 2 1 1 1 1 1 1 3 3 3 3 4 4 3 3 3 2 3 2 1 2 4 4 4 3 3 3 3 2 3 3 2 2 3 4 3 2 3 4 5 5 4 4 2 2 3 3 3 3 2 2 4 5 4 3 3 2 2 1 0 2 2 3 3 4 4 6 4 3 4 5 4 4 4 5 6 6
2 2 1 1 2 2 0 0 0 1 2 1 1 1 1 1 2 3 4 5 4 4 3 3 2 2 2 2 1 2 4 4 3 3 2 2 2 2 2 2 2 2 2 3 2 3 3 5 4 5 5 3 3 3 2 2 1 1 1 1 2 2 2 2 2 2 1 0 1 1 1 1 3 3 4 4 3 3 3 4 3 3 3 4 4
3 2 1 1 1 1 1 1 2 2 2 2 1 2 2 3 2 2 2 3 3 5 5 4 4 4 3 3 2 2 2 3 4 3 3 3 3 3 3 3 3 2 2 2 2 3 4 4 4 5 4 3 3 3 2 2 1 1 1 1 1 1 1 1 2 2 1 1 1 0 0 0 1 2 4 3 3 5 4 4 4 4 4 3 4
2 1 2 4 2 1 2 2 4 3 2 2 1 1 1 2 3 3 3 3 4 3 3 3 3 4 4 4 4 3 2 2 2 2 2 3 3 3 2 3 3 3 3 3 3 3 3 4 4 4 4 3 3 2 1 1 2 1 1 1 0 0 1 2 2 2 2 1 1 1 1 0 0 1 1 1 1 1 4 5 5 4 4 4 4
2 1 2 4 5 4 3 2 2 3 4 3 3 2 2 2 3 3 3 4 3 4 4 5 3 2 3 2 3 4 4 2 2 3 3 2 2 2 3 3 2 2 4 4 3 3 4 4 4 4 5 3 3 3 2 2 2 2 2 1 2 5 4 4 2 2 4 1 0 0 1 1 1 1 1 1 1 1 1 1 2 3 4 3 3
0 1 2 4 5 5 2 2 2 2 3 4 5 5 4 3 3 3 3 3 3 3 3 3 5 5 5 4 3 3 4 4 4 3 3 2 2 1 1 1 1 1 2 3 2 3 4 3 3 3 4 3 3 2 2 2 2 1 1 2 4 5 5 6 5 5 4 1 1 1 1 1 0 0 0 1 1 1 2 2 2 3 2 4 3
3 4 1 2 5 5 4 3 3 3 4 5 4 5 5 5 5 4 4 5 6 6 5 5 4 3 3 4 5 5 4 5 4 3 3 3 2 1 1 1 1 1 2 2 3 3 3 3 3 3 3 2 1 1 1 1 1 1 3 5 6 6 6 6 4 6 6 4 0 0 0 1 1 1 2 1 1 2 3 2 3 4 3 2 3
Wind_Direction
244 251 249 227 197 218 234 236 241 235 150 112 191 188 178 182 182 164 152 152 144 211 272 275 188 164 161 165 160 162 159 162 164 156 157 161 166 161 157 153 159 173 161 167 163 165 168 172 186 180 160 167 179 172 171 176 171 178 167 163 159 158 144 144 173 220 332 37 137 159 144 138 161 175 167 177 180 186 191 204 192 182 186 192 203
294 264 243 219 212 215 218 228 234 236 118 150 209 138 85 69 73 146 164 156 134 168 228 255 232 161 161 162 163 161 163 163 163 159 162 166 174 168 166 165 168 172 173 176 178 173 166 172 188 180 173 175 166 178 174 162 169 169 177 175 179 182 182 145 168 162 201 296 80 68 128 175 163 185 179 180 195 182 198 205 207 199 194 196 202
316 307 277 251 232 214 214 216 219 197 155 182 187 126 156 174 171 182 174 165 151 160 197 242 233 163 163 163 163 166 166 164 168 167 171 174 175 176 175 173 175 177 184 188 184 166 161 179 193 182 162 169 182 164 150 168 159 163 171 178 186 186 185 176 145 187 191 229 171 159 177 179 183 190 192 186 175 180 194 212 208 203 210 196 212
327 323 315 295 280 270 235 204 196 192 178 203 177 157 183 180 181 177 168 162 157 150 142 230 234 170 164 165 167 170 167 166 171 179 178 176 173 176 178 180 181 184 187 188 178 166 175 178 199 180 172 180 188 168 177 154 146 149 165 170 177 185 176 188 193 176 192 184 223 189 181 167 227 163 156 153 165 186 209 215 213 218 216 210 214
335 329 326 316 290 272 277 261 204 188 172 200 193 175 178 175 175 171 159 158 147 145 155 229 218 169 169 168 171 170 175 173 175 181 182 178 180 177 178 179 183 184 187 185 176 172 174 189 188 175 174 186 188 186 169 163 173 168 174 184 198 203 172 187 207 171 159 199 192 182 141 167 170 152 163 163 189 193 206 206 215 225 230 232 230
333 331 327 318 310 300 281 260 237 190 181 205 186 184 177 174 168 165 163 162 163 157 142 218 211 178 170 168 167 169 168 175 176 177 179 182 182 180 177 178 183 181 182 182 179 180 183 193 179 172 180 190 198 192 181 175 163 175 185 195 198 195 181 192 186 189 187 202 170 156 172 170 179 190 180 176 168 190 222 250 259 232 224 247 240
334 339 342 335 316 293 283 268 220 199 195 196 194 192 187 178 170 170 168 164 164 158 157 209 215 170 156 142 151 155 161 171 171 165 170 179 181 177 175 178 178 181 186 186 187 190 190 181 175 178 188 198 191 189 183 173 167 176 185 192 198 168 158 174 178 181 195 169 160 187 164 196 156 181 175 163 156 167 190 215 262 236 221 220 248
337 340 342 340 339 328 300 251 219 212 208 200 201 193 190 182 172 166 169 168 167 152 146 221 178 132 127 119 103 111 130 131 132 146 161 175 176 180 173 173 171 183 188 193 184 190 190 180 179 186 193 195 193 188 174 176 164 172 192 183 168 143 145 149 150 162 165 176 184 185 180 159 149 86 102 123 168 255 213 190 219 231 225 225 232
336 339 338 334 333 329 322 289 224 215 208 197 195 168 174 190 165 152 165 158 149 146 134 196 125 106 90 102 103 90 108 117 126 142 154 164 167 165 169 167 170 171 173 171 123 78 62 65 75 85 82 81 63 66 109 132 164 163 209 163 162 176 187 149 156 160 170 174 187 112 142 160 174 145 147 161 189 210 182 175 235 246 254 289 266
335 340 346 337 330 332 333 313 246 175 173 192 180 159 164 169 164 156 144 136 157 133 131 149 129 131 120 103 100 99 97 105 103 129 146 164 154 151 147 158 156 151 143 117 82 71 67 68 71 83 86 91 103 112 114 126 108 149 173 133 170 183 213 190 175 189 176 183 197 166 162 199 188 193 187 210 192 63 132 159 219 257 50 274 293
345 348 342 336 335 335 338 333 287 178 195 198 174 169 160 162 165 167 165 155 163 151 145 138 139 143 141 138 124 107 85 12 7 119 130 164 142 145 148 143 137 141 137 125 115 98 77 65 56 60 73 83 81 80 79 69 65 70 112 140 143 185 187 188 202 191 189 193 167 169 190 196 212 199 217 139 141 186 172 171 216 238 227 247 268
351 349 348 345 343 350 336 333 310 211 192 205 191 177 165 162 167 163 155 145 166 146 136 138 141 138 128 122 111 108 95 3 1 86 135 151 144 139 139 138 128 99 94 103 102 101 89 72 51 36 36 55 79 79 73 80 85 80 75 77 80 67 65 159 182 177 171 155 168 192 177 192 174 179 215 186 212 181 205 185 189 201 220 231 244
353 354 351 352 353 3 350 340 330 263 196 204 192 182 172 163 158 149 141 138 152 138 133 131 134 142 136 124 113 101 85 10 21 98 129 125 128 111 90 94 94 93 91 93 95 96 98 90 74 37 11 33 62 85 100 95 93 92 89 79 71 75 76 69 68 133 163 148 144 128 179 166 118 140 184 190 168 181 199 214 220 208 211 226 245
356 354 353 355 352 3 8 356 343 335 266 190 197 186 176 154 131 130 135 134 150 128 127 122 121 129 128 121 115 96 75 353 35 120 124 120 109 97 95 93 90 86 88 89 90 87 86 95 85 58 23 36 39 92 107 108 97 89 80 68 63 59 62 62 67 65 75 104 112 111 237 119 128 156 174 164 130 153 139 216 209 203 204 219 234
360 356 356 354 354 359 14 10 357 344 3 333 201 171 133 112 112 124 126 132 139 135 130 121 116 112 98 94 99 82 50 17 80 116 117 109 99 97 94 91 86 83 77 79 81 84 85 87 87 79 57 51 21 59 115 115 104 93 83 72 66 60 53 46 41 48 61 68 84 100 117 101 100 118 45 17 49 153 175 174 180 189 228 290 318
3 359 359 357 355 354 7 26 2 3 5 22 353 93 107 106 107 87 87 90 84 102 87 97 106 98 88 87 89 77 48 45 82 107 112 106 97 92 93 91 90 85 81 78 78 72 70 80 84 72 67 61 25 50 98 114 105 100 92 85 73 63 54 38 40 36 49 61 74 78 79 81 78 75 60 86 49 5 21 77 75 58 55 39 249
4 359 359 355 355 352 357 27 26 4 14 27 14 346 88 100 89 98 92 74 104 82 94 86 82 85 78 71 81 76 56 42 70 84 107 111 100 101 98 93 88 85 77 73 74 71 65 65 71 74 64 58 23 47 59 108 102 98 94 83 72 65 44 21 30 43 55 59 64 60 64 71 67 60 55 52 42 39 82 56 19 14 38 6 316
0 1 359 356 354 353 353 13 43 19 18 24 27 359 9 75 77 77 86 73 64 86 90 86 72 69 71 66 63 80 62 41 61 70 70 95 114 113 110 104 96 95 90 75 75 68 60 67 75 73 72 55 41 57 58 99 97 105 107 99 79 68 42 13 38 39 55 64 70 69 68 73 74 68 60 53 43 37 75 75 295 92 77 152 243
0 359 358 356 357 356 355 0 41 45 24 24 20 27 9 52 84 74 79 78 65 71 74 77 74 63 61 68 63 70 66 44 47 62 67 68 93 110 111 110 103 95 96 88 74 76 68 55 56 63 78 73 69 65 64 85 96 100 112 96 89 78 41 38 74 81 69 71 49 63 53 51 56 61 54 50 52 50 57 74 40 80 60 300 267
355 357 357 1 1 1 359 360 18 54 46 35 23 20 26 43 58 82 67 65 71 64 59 63 68 59 53 56 59 59 65 56 45 58 62 59 61 86 97 108 110 106 89 85 84 66 62 59 49 48 72 79 76 71 66 70 92 99 97 95 100 93 141 110 91 106 99 96 94 78 81 66 60 56 48 42 37 37 48 46 43 56 55 343 311
359 359 2 7 7 4 3 4 5 22 63 62 45 22 22 44 60 67 75 69 67 66 60 61 66 62 53 46 54 50 52 63 51 60 60 60 57 67 76 76 87 95 93 80 73 78 71 62 60 46 61 70 74 73 71 65 72 75 70 86 76 121 138 111 96 114 108 105 99 92 83 70 62 61 54 47 40 24 25 31 37 28 36 7 324
354 357 9 13 14 10 7 4 7 9 20 61 69 48 11 41 52 59 67 67 67 66 60 55 61 63 56 49 49 51 44 46 63 57 64 64 62 63 76 68 69 92 85 81 74 61 52 56 61 52 60 63 66 68 67 67 67 74 65 82 90 90 102 104 130 98 85 81 76 66 55 50 49 44 41 40 31 20 21 21 24 22 8 279 256
354 358 3 11 16 17 15 11 10 8 18 28 68 72 44 26 55 62 60 61 64 61 57 49 55 60 56 46 41 45 45 39 42 54 57 64 66 66 68 70 61 71 87 80 66 66 44 52 56 69 73 70 68 66 64 63 60 59 61 59 62 72 78 71 68 67 63 58 60 54 41 38 41 38 31 23 7 6 10 10 7 17 13 270 284
350 359 4 7 7 14 17 19 15 16 17 24 41 63 63 50 36 53 64 65 64 64 52 45 44 53 55 48 39 37 40 48 42 46 53 57 63 69 72 72 76 84 81 83 71 65 72 66 76 77 77 76 72 68 64 61 65 59 56 56 54 49 54 56 54 60 65 59 57 53 41 23 37 31 13 356 352 341 333 356 357 352 348 320 269
356 353 2 6 10 2 15 21 22 21 22 24 36 37 48 54 58 42 48 53 61 65 57 55 53 50 49 47 41 37 37 40 40 40 50 57 59 64 69 72 72 85 87 82 76 74 84 90 84 79 80 77 73 69 62 56 55 54 52 51 54 50 50 58 60 64 63 55 55 52 34 11 350 297 307 323 309 343 354 355 351 353 349 329 307
6 357 349 360 11 14 14 15 20 22 26 30 36 35 41 43 56 58 59 57 55 60 61 56 58 61 60 48 46 45 38 35 35 32 31 49 51 54 67 75 84 86 89 92 93 91 85 79 76 71 64 64 64 59 61 55 54 51 47 46 47 47 43 54 52 62 60 47 43 31 0 344 342 324 310 353 38 24 3 356 354 351 357 359 351
6 5 1 349 1 17 30 16 14 22 23 24 30 33 31 38 45 44 40 48 57 65 67 75 77 73 74 56 45 40 49 45 48 50 32 59 66 70 78 76 79 85 86 85 83 81 79 80 83 80 80 74 74 71 63 52 49 43 41 40 43 42 48 54 64 73 55 45 35 17 353 341 331 11 8 359 7 11 9 356 4 345 354 347 354
9 10 5 1 6 10 22 32 34 28 24 30 33 29 32 42 52 42 33 20 37 47 57 58 64 79 77 73 66 57 48 54 41 39 33 42 50 55 59 62 65 83 92 91 94 94 95 88 75 64 66 58 53 49 48 50 49 46 41 38 38 37 44 67 76 63 48 36 26 10 13 12 24 358 351 7 10 7 3 7 15 344 351 348 14
13 12 8 13 10 12 27 34 43 41 33 37 43 36 25 20 40 55 36 30 28 56 66 47 31 51 103 98 94 60 45 36 9 357 20 26 38 75 77 80 88 79 93 112 105 88 79 69 61 58 55 60 53 50 43 44 41 36 39 35 33 37 41 42 46 34 17 32 36 30 21 13 15 7 10 11 6 356 360 358 17 13 340 22 8
18 7 0 10 6 8 26 33 45 53 44 38 46 48 40 47 39 51 36 28 54 56 67 77 51 3 57 32 5 129 132 145 330 19 37 53 58 68 88 101 102 108 99 99 100 90 79 78 65 68 63 65 65 60 54 49 46 38 32 25 29 37 38 42 42 30 29 47 39 40 26 22 26 14 15 13 350 3 7 21 360 355 13 4 350
23 12 5 360 1 14 22 24 24 60 75 68 54 64 56 39 46 53 58 59 68 73 71 72 67 60 56 83 39 48 76 85 80 62 68 68 73 82 89 94 99 108 121 96 61 78 91 86 84 78 78 76 73 70 62 62 52 57 46 40 37 36 35 43 25 27 38 41 40 41 35 38 30 19 24 13 10 358 356 351 0 18 34 10 12
23 6 356 344 355 12 34 47 20 40 43 66 76 71 68 75 47 30 39 57 63 72 79 75 67 59 48 52 92 57 39 25 45 89 100 98 94 90 87 86 86 87 93 97 88 79 83 91 82 73 76 78 77 78 75 80 67 64 57 56 45 30 38 37 12 42 44 44 42 37 33 32 28 24 24 16 6 12 6 6 11 14 8 18 22
17 7 9 356 348 357 11 14 13 20 35 62 59 72 83 77 79 61 25 38 64 71 69 72 75 76 70 56 58 120 143 132 111 102 95 93 92 90 84 76 78 95 80 72 98 90 82 85 86 82 84 93 95 97 94 87 84 75 67 73 65 38 42 28 40 56 50 49 51 43 33 30 24 26 26 21 25 16 8 9 355 6 19 20 7
23 21 10 6 8 7 7 1 7 9 9 98 144 95 80 93 97 98 89 61 45 48 51 45 37 45 47 53 71 93 114 123 118 106 96 93 92 89 88 76 62 47 81 105 92 93 84 86 90 100 102 105 108 102 95 89 86 89 80 73 70 58 43 31 52 46 48 39 46 37 38 36 33 41 29 28 25 31 24 11 11 15 13 16 4
15 10 13 23 35 22 0 351 359 26 28 29 85 129 102 92 106 106 106 97 86 68 44 23 21 31 55 60 76 86 95 98 97 94 90 93 94 92 83 74 66 54 55 65 86 98 105 111 121 122 120 110 109 103 99 94 88 80 78 73 63 60 49 48 46 45 47 47 51 45 41 44 32 37 51 50 37 32 22 20 18 22 19 8 6
23 20 6 9 21 11 7 4 1 41 46 38 61 106 117 111 96 97 96 103 99 87 66 44 44 37 59 62 73 87 89 87 84 79 75 72 86 93 89 89 88 86 90 87 104 107 109 119 113 119 112 108 103 95 99 93 89 87 84 86 77 68 63 55 51 54 48 55 45 35 37 33 27 27 37 57 48 37 23 15 6 5 13 4 343
23 23 9 347 10 31 8 25 33 40 43 33 41 93 117 104 90 92 87 91 77 71 83 75 73 63 50 44 63 76 80 86 83 78 74 71 68 75 99 110 114 110 112 122 116 115 105 110 115 111 120 122 114 111 102 99 98 89 74 70 76 77 76 87 67 62 54 52 37 42 54 41 29 30 51 46 21 19 11 2 353 351 356 356 355
44 32 4 337 3 30 40 30 20 45 47 49 51 72 110 121 131 131 132 101 80 61 63 80 95 116 117 90 40 78 85 72 67 57 50 54 57 70 80 96 103 116 122 123 121 114 105 93 89 100 104 127 130 115 104 102 95 93 92 90 89 100 92 70 60 65 67 65 50 33 43 33 28 25 40 54 35 357 340 338 353 1 354 5 20
43 12 9 17 39 46 63 39 5 25 43 45 49 88 133 146 151 162 149 121 90 69 64 82 108 133 142 144 104 40 64 55 66 73 58 53 57 74 94 95 103 101 108 109 109 97 95 86 86 89 92 89 94 89 98 105 109 118 129 111 93 73 69 62 61 60 65 51 36 25 34 22 10 6 67 75 23 342 344 352 6 18 14 354 348
50 4 356 22 37 42 88 83 41 37 32 44 36 36 71 159 191 190 141 102 96 84 68 80 97 131 152 127 111 96 93 96 103 109 95 74 73 64 89 103 103 110 109 107 103 101 91 81 83 87 89 89 98 110 126 138 146 148 122 108 107 86 73 78 65 52 33 12 28 9 16 354 333 298 120 70 354 348 20 357 342 356 359 347 335
80 354 1 17 13 28 31 56 76 65 42 28 28 48 55 36 22 34 52 55 59 51 44 39 39 12 113 134 128 124 121 128 118 104 106 111 105 99 92 98 109 105 107 109 106 98 94 88 78 84 84 91 107 130 148 149 145 130 120 117 102 103 85 56 49 49 44 43 27 7 344 332 359 31 16 331 341 10 357 1 3 6 355 350 339
94 11 359 340 25 85 75 28 9 13 40 52 50 55 69 59 59 66 66 74 72 71 63 48 33 26 70 110 121 117 106 114 113 111 105 101 109 96 91 88 89 102 101 107 111 102 92 85 83 96 103 107 120 128 128 141 147 140 125 104 91 81 67 51 44 45 46 54 32 13 349 351 21 31 12 4 15 7 6 7 7 360 2 355 347
118 67 324 329 343 155 140 101 43 31 13 12 7 30 64 74 75 88 93 83 86 95 103 93 72 66 78 84 100 92 95 105 119 119 120 129 130 125 127 134 115 93 104 115 116 113 113 107 97 82 90 86 103 142 147 165 156 137 118 107 101 97 96 96 66 46 0 31 16 357 9 21 29 22 9 11 1 16 24 13 5 2 355 354 348
152 23 19 22 358 19 74 94 71 45 34 11 352 357 71 80 84 95 111 105 101 104 111 114 120 105 105 75 84 96 108 114 117 131 137 132 145 143 137 136 109 93 92 92 100 111 114 113 106 96 81 75 77 78 82 84 124 134 136 121 121 125 149 127 119 220 33 27 17 16 358 1 23 22 19 11 20 26 9 9 3 354 348 348 350
75 50 31 10 11 65 25 83 129 114 44 31 354 40 86 116 110 118 121 124 132 134 147 150 147 134 126 126 136 139 145 147 152 153 165 172 174 165 142 144 134 111 107 110 128 123 121 122 128 117 96 72 62 70 69 68 57 70 123 140 143 152 177 190 212 232 231 81 44 23 9 11 15 16 8 1 18 26 10 356 347 348 353 355 355
100 79 49 26 13 47 295 270 72 116 150 197 225 156 96 120 147 151 148 141 137 146 164 176 185 186 173 166 231 191 160 164 173 177 162 173 182 166 154 157 152 138 129 127 129 122 129 136 128 117 109 95 79 73 71 76 81 90 103 112 132 151 193 220 236 263 260 114 78 68 337 351 13 25 20 2 358 6 5 350 353 359 354 341 343
130 160 193 200 241 311 287 201 151 175 198 214 213 199 155 181 186 176 174 179 175 170 170 168 170 194 183 161 193 217 171 159 167 171 185 186 181 175 171 160 137 136 133 115 101 108 110 101 100 105 107 101 93 93 87 92 96 111 115 128 125 159 207 231 242 253 260 246 189 168 165 90 3 354 11 1 13 9 357 354 2 353 345 348 351
123 202 251 267 301 275 259 195 212 210 203 202 213 231 195 176 188 190 178 183 192 189 182 196 212 192 169 172 172 175 192 174 165 169 167 178 183 179 176 160 153 158 130 91 79 82 95 107 113 116 118 124 118 112 101 86 82 69 68 64 86 327 275 270 266 284 269 265 213 189 182 168 230 8 29 345 351 357 10 348 349 358 352 342 346
122 181 261 285 281 259 249 243 214 204 211 200 196 221 215 187 202 204 202 193 187 191 186 182 192 251 241 186 169 160 162 177 169 172 191 205 197 184 174 171 159 145 116 108 99 110 119 123 127 124 123 124 123 114 99 85 62 47 27 16 2 4 7 360 346 317 322 321 281 173 151 166 217 262 252 266 290 346 346 344 3 355 350 342 358
117 170 214 268 277 284 262 221 239 224 214 210 205 203 207 202 202 212 197 181 190 203 192 202 195 196 175 149 158 181 165 179 186 193 200 220 223 224 186 136 102 86 106 130 135 130 125 126 120 123 124 126 118 114 111 105 94 68 38 13 8 15 10 3 357 349 342 314 266 220 152 113 94 52 6 321 339 17 28 357 354 13 8 352 355
326 315 269 217 250 262 262 244 219 217 217 215 210 210 211 214 218 204 190 183 182 198 198 212 202 185 181 167 166 173 185 192 196 186 196 207 221 204 153 114 111 110 96 106 116 121 128 131 137 136 136 128 134 157 170 150 99 37 27 25 19 13 8 7 356 343 341 342 338 163 138 116 103 69 33 26 39 49 8 344 358 8 10 3 327